Time,TemperatureF,DewpointF,PressureIn,WindDirection,WindDirectionDegrees,WindSpeedMPH,WindSpeedGustMPH,Humidity,HourlyPrecipIn,Conditions,Clouds,dailyrainin,SoftwareType,DateUTC
2013-03-04 00:13:00,13.0,10.0,30.16,WNW,284,0.0,0.0,87,0.00,,,0.00,weatherlink.com 1.10,2013-03-04 06:13:00,
2013-03-04 00:29:00,12.8,10.0,30.17,WNW,284,0.0,0.0,87,0.00,,,0.00,weatherlink.com 1.10,2013-03-04 06:29:00,
2013-03-04 00:43:00,12.7,10.0,30.18,WNW,284,0.0,0.0,87,0.00,,,0.00,weatherlink.com 1.10,2013-03-04 06:43:00,
2013-03-04 00:58:00,12.5,10.0,30.18,WNW,284,0.0,0.0,88,0.00,,,0.00,weatherlink.com 1.10,2013-03-04 06:58:00,
2013-03-04 01:13:00,12.4,10.0,30.18,WNW,284,0.0,0.0,88,0.00,,,0.00,weatherlink.com 1.10,2013-03-04 07:13:00,
2013-03-04 01:28:00,12.6,10.0,30.18,WNW,284,0.0,0.0,88,0.00,,,0.00,weatherlink.com 1.10,2013-03-04 07:28:00,
2013-03-04 01:43:00,12.9,10.0,30.18,WNW,284,0.0,0.0,88,0.00,,,0.00,weatherlink.com 1.10,2013-03-04 07:43:00,
2013-03-04 01:58:00,13.3,10.0,30.18,WNW,284,0.0,0.0,87,0.00,,,0.00,weatherlink.com 1.10,2013-03-04 07:58:00,
2013-03-04 02:13:00,13.5,10.0,30.18,WNW,284,1.0,1.0,87,0.00,,,0.00,weatherlink.com 1.10,2013-03-04 08:13:00,
2013-03-04 02:28:00,13.6,11.0,30.18,WNW,284,0.0,0.0,87,0.00,,,0.00,weatherlink.com 1.10,2013-03-04 08:28:00,
2013-03-04 02:42:00,13.7,11.0,30.17,WNW,284,1.0,2.0,87,0.00,,,0.00,weatherlink.com 1.10,2013-03-04 08:42:00,
2013-03-04 02:57:00,13.6,11.0,30.17,WNW,284,0.0,1.0,87,0.00,,,0.00,weatherlink.com 1.10,2013-03-04 08:57:00,
2013-03-04 03:12:00,13.7,11.0,30.17,WNW,284,0.0,2.0,87,0.00,,,0.00,weatherlink.com 1.10,2013-03-04 09:12:00,
2013-03-04 03:27:00,13.7,11.0,30.16,WNW,284,1.0,1.0,88,0.00,,,0.00,weatherlink.com 1.10,2013-03-04 09:27:00,
2013-03-04 03:42:00,13.6,11.0,30.16,WNW,284,0.0,2.0,88,0.00,,,0.00,weatherlink.com 1.10,2013-03-04 09:42:00,
2013-03-04 03:57:00,13.7,11.0,30.16,North,351,1.0,2.0,89,0.00,,,0.00,weatherlink.com 1.10,2013-03-04 09:57:00,
2013-03-04 04:12:00,13.8,11.0,30.15,North,355,0.0,2.0,88,0.00,,,0.00,weatherlink.com 1.10,2013-03-04 10:12:00,
2013-03-04 04:27:00,13.8,11.0,30.15,North,355,1.0,2.0,89,0.00,,,0.00,weatherlink.com 1.10,2013-03-04 10:27:00,
2013-03-04 04:42:00,14.5,12.0,30.15,ESE,105,0.0,3.0,90,0.00,,,0.00,weatherlink.com 1.10,2013-03-04 10:42:00,
2013-03-04 04:57:00,15.3,13.0,30.15,ESE,105,0.0,2.0,89,0.00,,,0.00,weatherlink.com 1.10,2013-03-04 10:57:00,
2013-03-04 05:12:00,15.7,13.0,30.15,ESE,103,0.0,2.0,88,0.00,,,0.00,weatherlink.com 1.10,2013-03-04 11:12:00,
2013-03-04 05:27:00,15.8,13.0,30.15,ESE,103,0.0,1.0,89,0.00,,,0.00,weatherlink.com 1.10,2013-03-04 11:27:00,
2013-03-04 05:42:00,16.1,13.0,30.15,ESE,103,0.0,2.0,88,0.00,,,0.00,weatherlink.com 1.10,2013-03-04 11:42:00,
2013-03-04 05:57:00,16.0,13.0,30.15,ESE,103,0.0,1.0,88,0.00,,,0.00,weatherlink.com 1.10,2013-03-04 11:57:00,
2013-03-04 06:12:00,16.2,13.0,30.15,ESE,103,0.0,1.0,88,0.00,,,0.00,weatherlink.com 1.10,2013-03-04 12:12:00,
2013-03-04 06:27:00,16.6,14.0,30.15,ESE,103,1.0,2.0,89,0.00,,,0.00,weatherlink.com 1.10,2013-03-04 12:27:00,
2013-03-04 06:42:00,17.0,14.0,30.15,ESE,103,0.0,2.0,88,0.00,,,0.00,weatherlink.com 1.10,2013-03-04 12:42:00,
2013-03-04 06:57:00,17.9,15.0,30.15,ESE,103,0.0,1.0,89,0.00,,,0.00,weatherlink.com 1.10,2013-03-04 12:57:00,
2013-03-04 07:12:00,19.1,16.0,30.15,ESE,103,1.0,2.0,87,0.00,,,0.00,weatherlink.com 1.10,2013-03-04 13:12:00,
2013-03-04 07:27:00,20.0,17.0,30.15,East,90,1.0,3.0,87,0.00,,,0.00,weatherlink.com 1.10,2013-03-04 13:27:00,
2013-03-04 07:42:00,21.3,18.0,30.15,ESE,107,2.0,4.0,86,0.00,,,0.00,weatherlink.com 1.10,2013-03-04 13:42:00,
2013-03-04 07:57:00,22.4,19.0,30.15,East,94,2.0,5.0,85,0.00,,,0.00,weatherlink.com 1.10,2013-03-04 13:57:00,
2013-03-04 08:12:00,23.6,20.0,30.15,ESE,117,2.0,5.0,84,0.00,,,0.00,weatherlink.com 1.10,2013-03-04 14:12:00,
2013-03-04 08:27:00,25.0,20.0,30.15,ESE,115,3.0,7.0,81,0.00,,,0.00,weatherlink.com 1.10,2013-03-04 14:27:00,
2013-03-04 08:44:00,25.8,20.0,30.14,East,81,6.0,8.0,79,0.00,,,0.00,weatherlink.com 1.10,2013-03-04 14:44:00,
2013-03-04 08:57:00,26.5,21.0,30.14,East,94,6.0,8.0,78,0.00,,,0.00,weatherlink.com 1.10,2013-03-04 14:57:00,
2013-03-04 09:13:00,27.2,21.0,30.14,East,101,3.0,9.0,78,0.00,,,0.00,weatherlink.com 1.10,2013-03-04 15:13:00,
2013-03-04 09:28:00,27.8,21.0,30.13,East,101,7.0,10.0,77,0.00,,,0.00,weatherlink.com 1.10,2013-03-04 15:28:00,
2013-03-04 09:44:00,28.5,22.0,30.13,East,93,8.0,8.0,77,0.00,,,0.00,weatherlink.com 1.10,2013-03-04 15:44:00,
2013-03-04 09:59:00,29.3,23.0,30.13,ESE,113,2.0,9.0,77,0.00,,,0.00,weatherlink.com 1.10,2013-03-04 15:59:00,
2013-03-04 10:13:00,30.1,23.0,30.13,ESE,115,7.0,7.0,76,0.00,,,0.00,weatherlink.com 1.10,2013-03-04 16:13:00,
2013-03-04 10:28:00,30.7,24.0,30.12,East,95,8.0,8.0,75,0.00,,,0.00,weatherlink.com 1.10,2013-03-04 16:28:00,
2013-03-04 10:43:00,31.0,23.0,30.12,ESE,119,4.0,6.0,73,0.00,,,0.00,weatherlink.com 1.10,2013-03-04 16:43:00,
2013-03-04 10:58:00,31.3,23.0,30.12,SSE,148,3.0,6.0,72,0.00,,,0.00,weatherlink.com 1.10,2013-03-04 16:58:00,
2013-03-04 11:13:00,31.4,23.0,30.12,ESE,106,3.0,9.0,72,0.00,,,0.00,weatherlink.com 1.10,2013-03-04 17:13:00,
2013-03-04 11:28:00,31.6,24.0,30.12,East,90,3.0,7.0,72,0.00,,,0.00,weatherlink.com 1.10,2013-03-04 17:28:00,
2013-03-04 11:43:00,32.0,23.0,30.11,SE,124,2.0,11.0,70,0.00,,,0.00,weatherlink.com 1.10,2013-03-04 17:43:00,
2013-03-04 11:58:00,32.5,24.0,30.11,ESE,109,4.0,8.0,71,0.00,,,0.00,weatherlink.com 1.10,2013-03-04 17:58:00,
2013-03-04 12:13:00,33.0,25.0,30.10,ENE,67,3.0,7.0,71,0.00,,,0.00,weatherlink.com 1.10,2013-03-04 18:13:00,
2013-03-04 12:28:00,33.0,26.0,30.09,East,81,7.0,9.0,74,0.00,,,0.00,weatherlink.com 1.10,2013-03-04 18:28:00,
2013-03-04 12:43:00,32.6,26.0,30.09,ENE,72,3.0,8.0,77,0.00,,,0.00,weatherlink.com 1.10,2013-03-04 18:43:00,
2013-03-04 12:58:00,32.5,26.0,30.08,East,92,7.0,8.0,77,0.00,,,0.00,weatherlink.com 1.10,2013-03-04 18:58:00,
2013-03-04 13:13:00,32.5,25.0,30.08,East,80,3.0,8.0,75,0.00,,,0.00,weatherlink.com 1.10,2013-03-04 19:13:00,
2013-03-04 13:28:00,32.5,24.0,30.08,East,86,6.0,8.0,72,0.00,,,0.00,weatherlink.com 1.10,2013-03-04 19:28:00,
2013-03-04 13:43:00,32.4,26.0,30.07,East,101,5.0,8.0,77,0.00,,,0.00,weatherlink.com 1.10,2013-03-04 19:43:00,
2013-03-04 13:58:00,31.8,26.0,30.07,ENE,69,3.0,8.0,78,0.00,,,0.00,weatherlink.com 1.10,2013-03-04 19:58:00,
2013-03-04 14:13:00,31.4,26.0,30.07,East,95,1.0,7.0,80,0.00,,,0.00,weatherlink.com 1.10,2013-03-04 20:13:00,
2013-03-04 14:28:00,31.2,25.0,30.07,ENE,73,2.0,8.0,79,0.00,,,0.00,weatherlink.com 1.10,2013-03-04 20:28:00,
2013-03-04 14:43:00,30.9,25.0,30.07,ENE,76,2.0,9.0,80,0.00,,,0.00,weatherlink.com 1.10,2013-03-04 20:43:00,
2013-03-04 14:58:00,30.3,26.0,30.07,East,80,5.0,8.0,83,0.00,,,0.00,weatherlink.com 1.10,2013-03-04 20:58:00,
2013-03-04 15:13:00,30.1,25.0,30.07,East,85,3.0,8.0,81,0.00,,,0.00,weatherlink.com 1.10,2013-03-04 21:13:00,
2013-03-04 15:28:00,30.2,25.0,30.06,East,81,6.0,9.0,82,0.00,,,0.00,weatherlink.com 1.10,2013-03-04 21:28:00,
2013-03-04 15:43:00,30.4,26.0,30.06,ENE,61,3.0,8.0,82,0.00,,,0.00,weatherlink.com 1.10,2013-03-04 21:43:00,
2013-03-04 15:58:00,30.4,25.0,30.05,East,92,8.0,10.0,80,0.00,,,0.00,weatherlink.com 1.10,2013-03-04 21:58:00,
2013-03-04 16:13:00,30.2,25.0,30.04,East,82,6.0,11.0,81,0.00,,,0.00,weatherlink.com 1.10,2013-03-04 22:13:00,
2013-03-04 16:28:00,29.7,25.0,30.04,East,90,7.0,11.0,83,0.00,,,0.00,weatherlink.com 1.10,2013-03-04 22:28:00,
2013-03-04 16:43:00,29.5,25.0,30.04,East,79,9.0,11.0,84,0.00,,,0.00,weatherlink.com 1.10,2013-03-04 22:43:00,
2013-03-04 16:58:00,29.2,25.0,30.05,NE,54,6.0,9.0,84,0.00,,,0.00,weatherlink.com 1.10,2013-03-04 22:58:00,
2013-03-04 17:13:00,29.2,25.0,30.04,East,100,3.0,9.0,83,0.00,,,0.00,weatherlink.com 1.10,2013-03-04 23:13:00,
2013-03-04 17:28:00,29.3,24.0,30.04,ENE,62,4.0,9.0,82,0.00,,,0.00,weatherlink.com 1.10,2013-03-04 23:28:00,
2013-03-04 17:43:00,29.3,24.0,30.04,ENE,78,4.0,9.0,82,0.00,,,0.00,weatherlink.com 1.10,2013-03-04 23:43:00,
2013-03-04 17:58:00,29.2,24.0,30.05,ENE,68,4.0,9.0,81,0.00,,,0.00,weatherlink.com 1.10,2013-03-04 23:58:00,
2013-03-04 18:13:00,29.1,24.0,30.05,ENE,77,3.0,8.0,81,0.00,,,0.00,weatherlink.com 1.10,2013-03-05 00:13:00,
2013-03-04 18:28:00,29.1,24.0,30.06,ENE,69,8.0,9.0,81,0.00,,,0.00,weatherlink.com 1.10,2013-03-05 00:28:00,
2013-03-04 18:43:00,29.2,24.0,30.06,NE,36,1.0,8.0,80,0.00,,,0.00,weatherlink.com 1.10,2013-03-05 00:43:00,
2013-03-04 18:59:00,29.2,24.0,30.07,ENE,63,3.0,5.0,82,0.00,,,0.00,weatherlink.com 1.10,2013-03-05 00:59:00,
2013-03-04 19:14:00,29.2,25.0,30.07,East,88,5.0,6.0,83,0.00,,,0.00,weatherlink.com 1.10,2013-03-05 01:14:00,
2013-03-04 19:29:00,29.3,25.0,30.07,ENE,74,2.0,5.0,83,0.00,,,0.00,weatherlink.com 1.10,2013-03-05 01:29:00,
2013-03-04 19:44:00,29.5,25.0,30.08,East,86,3.0,6.0,83,0.00,,,0.00,weatherlink.com 1.10,2013-03-05 01:44:00,
2013-03-04 19:59:00,29.6,25.0,30.08,ESE,107,4.0,5.0,84,0.00,,,0.00,weatherlink.com 1.10,2013-03-05 01:59:00,
2013-03-04 20:14:00,29.8,26.0,30.08,East,95,3.0,7.0,84,0.00,,,0.00,weatherlink.com 1.10,2013-03-05 02:14:00,
2013-03-04 20:29:00,29.8,26.0,30.08,East,88,1.0,4.0,84,0.00,,,0.00,weatherlink.com 1.10,2013-03-05 02:29:00,
2013-03-04 20:44:00,29.9,26.0,30.08,ENE,77,2.0,4.0,85,0.00,,,0.00,weatherlink.com 1.10,2013-03-05 02:44:00,
2013-03-04 20:59:00,30.0,26.0,30.08,East,87,1.0,5.0,85,0.00,,,0.00,weatherlink.com 1.10,2013-03-05 02:59:00,
2013-03-04 21:14:00,30.0,26.0,30.08,ENE,74,2.0,7.0,86,0.00,,,0.00,weatherlink.com 1.10,2013-03-05 03:14:00,
2013-03-04 21:29:00,30.1,26.0,30.07,East,82,1.0,5.0,85,0.00,,,0.00,weatherlink.com 1.10,2013-03-05 03:29:00,
2013-03-04 21:44:00,30.2,26.0,30.07,East,80,2.0,6.0,85,0.00,,,0.00,weatherlink.com 1.10,2013-03-05 03:44:00,
2013-03-04 21:59:00,30.3,26.0,30.06,ENE,74,3.0,6.0,85,0.00,,,0.00,weatherlink.com 1.10,2013-03-05 03:59:00,
2013-03-04 22:14:00,30.5,27.0,30.06,ENE,76,1.0,7.0,85,0.00,,,0.00,weatherlink.com 1.10,2013-03-05 04:14:00,
2013-03-04 22:29:00,30.6,26.0,30.05,ENE,68,4.0,7.0,84,0.00,,,0.00,weatherlink.com 1.10,2013-03-05 04:29:00,
2013-03-04 22:44:00,30.8,27.0,30.04,East,91,1.0,4.0,85,0.00,,,0.00,weatherlink.com 1.10,2013-03-05 04:44:00,
2013-03-04 22:59:00,30.8,27.0,30.04,ENE,61,4.0,4.0,85,0.00,,,0.00,weatherlink.com 1.10,2013-03-05 04:59:00,
2013-03-04 23:14:00,30.9,27.0,30.04,East,94,2.0,5.0,85,0.00,,,0.00,weatherlink.com 1.10,2013-03-05 05:14:00,
2013-03-04 23:29:00,31.0,27.0,30.04,ENE,78,1.0,5.0,85,0.00,,,0.00,weatherlink.com 1.10,2013-03-05 05:29:00,
2013-03-04 23:44:00,31.2,27.0,30.03,East,83,2.0,6.0,84,0.00,,,0.00,weatherlink.com 1.10,2013-03-05 05:44:00,
2013-03-04 23:59:00,31.5,27.0,30.03,East,82,3.0,6.0,83,0.00,,,0.00,weatherlink.com 1.10,2013-03-05 05:59:00,